Погода в Вильявисенсио

Колумбия     4°08′33″N   73°38′04″W
темп.,
°C
ветер,
м/с
пор.,
м/с
влажн.,
%
обл.,
%
осадки,
мм/ч
давл.,
гПа
погр.,
м
19 июня, сб
сб1901:00+14сз2397100 6.1 101879
04:00+13сз219748 0.8 101831
07:00+15сз129567 1.2 102055
10:00+18юв228762 0.9 1020533
13:00+17юз119989 4.4 1017125
16:00+18вюв119059 2.3 1015439
19:00+15сз119899 4.3 101818
22:00+15сз1198100 2.8 102026
20 июня, вс
вс2001:00+15св01100100 19.4 101869
04:00+15зсз119999 3.8 101783
07:00+15зсз1199100 4.9 101938
10:00+15ю0199100 1.8 1020124
13:00+16ююв1198100 3.1 1018158
16:00+15ююв22100100 7.8 1017188
19:00+14ссз1199100 20.4 102054
22:00+14сз339794 3.9 102175
21 июня, пн
пн2101:00+14сз229781 4.6 101844
04:00+14сз229799 1.3 101840
07:00+15сз129589 2.2 102048
10:00+17ююв228931 1.6 1020403
13:00+18юв228717 4.6 1017554
16:00+19юв218235 1.0 1015675
19:00+15сз119524 1.5 101815
22:00+13сз22955 0.1 102042
22 июня, вт
вт2201:00+12сз339457 0.3 101954
04:00+13сз238661 0.0 101850
07:00+15сз128142 0.1 101961
10:00+19юв227055 0.2 1019630
13:00+21юв327230 1.0 10161052
16:00+18вюв229071 0.8 1016456
19:00+15сз219438 1.3 101825
22:00+13сз339536 0.3 102046
23 июня, ср
ср2301:00+12сз339197 0.4 101957
04:00+13сз238375 0.0 101851
07:00+15сз1175100 0.0 101932
10:00+17ююв107366 0.0 1020371
13:00+20юв327851 0.8 1017932
16:00+17юв119474 1.8 1016373
19:00+15ссз009890 2.9 101815
22:00+15зсз11100100 5.6 101999